Погода в Татарских Суксах

Россия / Республика Татарстан     55°45′08″N   53°39′36″E
темп.,
°C
ветер,
м/с
пор.,
м/с
влажн.,
%
обл.,
%
осадки,
мм/ч
давл.,
гПа
погр.,
м
16 июня, ср
ср1600:00+18вюв339214 0.0 101335
03:00+17вюв35925 0.0 101378
06:00+21юв477920 0.0 1012243
09:00+26юв565937 0.0 1011557
12:00+28ююв575179 0.0 1009986
15:00+28ююз8105986 0.0 10081599
18:00+24ююз5107238 0.2 1007526
21:00+19ююз410894 0.5 1007203
17 июня, чт
чт1700:00+17ююз511925 0.4 1007254
03:00+16юз499558 0.4 1007192
06:00+18зсз4795100 1.2 1007520
09:00+18ссз6108999 1.3 1009771
12:00+21ссз89480 0.1 10111565
15:00+21сз79480 0.1 10122031
18:00+19ссз711565 0.0 1014831
21:00+14сз512645 0.0 1016385
18 июня, пт
пт1800:00+13ссз511665 0.0 1017464
03:00+10ссз511865 0.0 1019355
06:00+13с57775 0.0 1021529
09:00+17с57515 0.0 10221334
12:00+20с67435 0.0 10231958
15:00+20с57425 0.0 10232139
18:00+19сз35605 0.0 1023151
21:00+14зсз3469100 0.0 102347
19 июня, сб
сб1900:00+12сз3377100 0.0 102445
03:00+11з337936 0.0 102551
06:00+15з5868100 0.0 1024274
09:00+20з6854100 0.0 1023722
12:00+24з795111 0.0 10221496
15:00+25зсз795223 0.0 10202101
18:00+24з510670 0.0 1019394
21:00+19з411823 0.0 1020219
20 июня, вс
вс2000:00+18з49890 0.0 1020172
03:00+16з36930 0.0 1020102
06:00+21сз37740 0.0 1021274
09:00+26зсз56570 0.0 1020671
12:00+29сз67470 0.0 10201553
15:00+29сз56450 0.0 10201801
18:00+27зсз34620 0.0 102092
21:00+21зсз49810 0.0 1020147